Location: Mohawk View
(42.7837°N, 73.7885°W)
Time: 08:40:45
(UTC+00:00)

GEOS 3 Rocket - Pass Details

Date: 17 June 2021
Orbit: 779 x 840 km, 115.0° (Epoch: 27 July)

Event Time Altitude Azimuth Distance (km) Brightness Sun altitude
Exits shadow 03:39:19 39° 126° (SE) 1,234 4.1 -21.5°
Maximum altitude 03:41:21 75° 51° (NE) 872 3.7 -21.6°
Drops below altitude 10° 03:46:41 10° 327° (NNW) 2,453 7.2 -21.9°
Sets 03:49:00 0° 326° (NW) 3,385 8.1 -22.0°
